 day,  time,  air_temp(C),  RH(%),  ground_temp10cm(C),  ground_temp20cm(C),  ground_temp40cm(C),  precipitation(mm/h),  Solar_Radiation(MJ/m2h),  lack, 
 08/04/01, 01:00,  -5.8,  90,   1.3,   2.1,   2.8,   0.5,  0.00, 
 08/04/01, 02:00,  -5.9,  95,   1.3,   2.1,   2.8,   1.0,  0.00, 
 08/04/01, 03:00,  -5.4,  96,   1.3,   2.0,   2.8,   2.5,  0.00, 
 08/04/01, 04:00,  -5.2,  98,   1.3,   2.0,   2.8,   2.0,  0.00, 
 08/04/01, 05:00,  -4.8,  96,   1.3,   2.0,   2.8,   1.5,  0.00, 
 08/04/01, 06:00,  -4.7,  97,   1.3,   2.0,   2.8,   1.5,  0.00, 
 08/04/01, 07:00,  -4.3,  98,   1.2,   2.0,   2.8,   1.0,  0.01, 
 08/04/01, 08:00,  -3.4,  96,   1.2,   2.0,   2.8,   1.5,  0.08, 
 08/04/01, 09:00,  -3.2,  98,   1.2,   1.9,   2.8,   2.0,  0.14, 
 08/04/01, 10:00,  -3.0,  96,   1.2,   1.9,   2.8,   1.5,  0.13, 
 08/04/01, 11:00,  -1.7,  90,   1.2,   1.9,   2.8,   1.0,  0.39, 
 08/04/01, 12:00,  -1.2,  96,   1.2,   1.9,   2.8,   0.0,  0.46, 
 08/04/01, 13:00,  -2.0,  99,   1.2,   1.9,   2.8,   0.5,  0.28, 
 08/04/01, 14:00,  -1.5,  99,   1.2,   1.9,   2.7,   0.5,  0.31, 
 08/04/01, 15:00,  -1.9,  98,   1.2,   1.9,   2.7,   1.0,  0.14, 
 08/04/01, 16:00,  -2.0,  92,   1.1,   1.9,   2.7,   1.0,  0.11, 
 08/04/01, 17:00,  -2.1,  97,   1.1,   1.9,   2.7,   1.5,  0.05, 
 08/04/01, 18:00,  -2.3,  91,   1.1,   1.8,   2.7,   1.0,  0.02, 
 08/04/01, 19:00,  -2.6,  85,   1.1,   1.8,   2.7,   0.5,  0.00, 
 08/04/01, 20:00,  -2.9,  92,   1.1,   1.8,   2.7,   0.0,  0.00, 
 08/04/01, 21:00,  -2.8,  86,   1.1,   1.8,   2.7,   0.5,  0.00, 
 08/04/01, 22:00,  -3.1,  86,   1.1,   1.8,   2.7,   0.0,  0.00, 
 08/04/01, 23:00,  -3.2,  80,   1.1,   1.8,   2.7,   0.0,  0.00, 
 08/04/02, 00:00,  -3.7,  85,   1.1,   1.8,   2.7,   0.0,  0.00, 
 08/04/02, 01:00,  -4.1,  85,   1.1,   1.8,   2.7,   0.0,  0.00, 
 08/04/02, 02:00,  -3.7,  85,   1.1,   1.8,   2.7,   0.0,  0.00, 
 08/04/02, 03:00,  -3.5,  86,   1.1,   1.8,   2.7,   0.0,  0.00, 
 08/04/02, 04:00,  -3.9,  82,   1.0,   1.8,   2.7,   0.0,  0.00, 
 08/04/02, 05:00,  -3.8,  73,   1.0,   1.7,   2.6,   0.0,  0.00, 
 08/04/02, 06:00,  -5.1,  79,   1.0,   1.7,   2.6,   0.0,  0.00, 
 08/04/02, 07:00,  -4.5,  75,   1.0,   1.7,   2.6,   0.0,  0.10, 
 08/04/02, 08:00,  -2.3,  72,   1.0,   1.7,   2.6,   0.0,  0.29, 
 08/04/02, 09:00,  -1.1,  76,   1.0,   1.7,   2.6,   0.0,  0.48, 
 08/04/02, 10:00,   0.0,  78,   1.1,   1.7,   2.6,   0.0,  0.56, 
 08/04/02, 11:00,   2.1,  67,   1.1,   1.8,   2.6,   0.0,  0.59, 
 08/04/02, 12:00,   2.2,  80,   1.1,   1.8,   2.7,   0.5,  0.90, 
 08/04/02, 13:00,   3.5,  80,   1.1,   1.8,   2.6,   0.0,  2.25, 
 08/04/02, 14:00,   4.1,  83,   1.1,   1.8,   2.6,   0.0,  2.39, 
 08/04/02, 15:00,   4.0,  77,   1.1,   1.8,   2.7,   0.0,  1.81, 
 08/04/02, 16:00,   3.9,  62,   1.1,   1.8,   2.7,   0.0,  0.81, 
 08/04/02, 17:00,   3.6,  54,   1.1,   1.8,   2.6,   0.0,  0.39, 
 08/04/02, 18:00,   1.0,  90,   1.1,   1.6,   2.6,   0.0,  0.10, 
 08/04/02, 19:00,   0.6,  92,   1.1,   1.6,   2.6,   0.0,  0.00, 
 08/04/02, 20:00,   1.1,  81,   1.1,   1.7,   2.6,   0.0,  0.00, 
 08/04/02, 21:00,   1.5,  71,   1.1,   1.6,   2.6,   0.0,  0.00, 
 08/04/02, 22:00,   1.6,  71,   1.1,   1.7,   2.6,   0.0,  0.00, 
 08/04/02, 23:00,   1.5,  74,   1.1,   1.6,   2.6,   0.0,  0.00, 
 08/04/03, 00:00,   1.4,  73,   1.1,   1.6,   2.5,   0.0,  0.00, 
 08/04/03, 01:00,   1.0,  76,   1.0,   1.7,   2.6,   0.0,  0.00, 
 08/04/03, 02:00,   0.6,  78,   1.0,   1.7,   2.6,   0.0,  0.00, 
 08/04/03, 03:00,   0.7,  80,   1.0,   1.6,   2.5,   0.0,  0.00, 
 08/04/03, 04:00,  -0.1,  84,   1.0,   1.6,   2.5,   0.0,  0.00, 
 08/04/03, 05:00,   0.1,  83,   1.0,   1.7,   2.5,   0.0,  0.00, 
 08/04/03, 06:00,  -0.2,  86,   1.0,   1.6,   2.5,   0.0,  0.00, 
 08/04/03, 07:00,   0.1,  87,   1.0,   1.6,   2.5,   0.0,  0.14, 
 08/04/03, 08:00,   1.1,  80,   1.0,   1.7,   2.6,   0.0,  0.71, 
 08/04/03, 09:00,   1.9,  70,   1.0,   1.7,   2.6,   0.0,  1.38, 
 08/04/03, 10:00,   3.2,  71,   1.0,   1.7,   2.6,   0.0,  1.36, 
 08/04/03, 11:00,   0.8,  97,   1.0,   1.6,   2.5,   0.0,  0.91, 
 08/04/03, 12:00,   0.1,  99,   1.0,   1.5,   2.6,   1.0,  0.17, 
 08/04/03, 13:00,   1.0,  96,   1.0,   1.5,   2.6,   1.0,  0.56, 
 08/04/03, 14:00,   1.7,  96,   1.0,   1.6,   2.6,   0.0,  1.25, 
 08/04/03, 15:00,   2.6,  96,   1.0,   1.6,   2.6,   0.0,  1.68, 
 08/04/03, 16:00,   0.5,  98,   1.0,   1.6,   2.5,   0.5,  0.50, 
 08/04/03, 17:00,   1.5,  79,   1.0,   1.6,   2.5,   0.5,  0.85, 
 08/04/03, 18:00,   1.0,  70,   1.0,   1.5,   2.5,   0.0,  0.36, 
 08/04/03, 19:00,  -0.1,  73,   1.0,   1.6,   2.5,   0.0,  0.01, 
 08/04/03, 20:00,  -0.4,  72,   1.0,   1.6,   2.4,   0.0,  0.00, 
 08/04/03, 21:00,  -1.9,  81,   1.0,   1.5,   2.4,   0.0,  0.00, 
 08/04/03, 22:00,  -1.4,  73,   1.0,   1.6,   2.5,   0.0,  0.00, 
 08/04/03, 23:00,  -2.2,  76,   1.0,   1.6,   2.5,   0.0,  0.00, 
 08/04/04, 00:00,  -1.7,  72,   1.0,   1.5,   2.4,   0.0,  0.00, 
 08/04/04, 01:00,  -1.7,  67,   1.0,   1.5,   2.5,   0.0,  0.00, 
 08/04/04, 02:00,  -1.9,  61,   1.0,   1.5,   2.5,   0.0,  0.00, 
 08/04/04, 03:00,  -1.3,  38,   1.0,   1.5,   2.4,   0.0,  0.00, 
 08/04/04, 04:00,  -1.4,  39,   1.0,   1.5,   2.4,   0.0,  0.00, 
 08/04/04, 05:00,  -0.5,  34,   1.0,   1.5,   2.4,   0.0,  0.00, 
 08/04/04, 06:00,  -0.1,  36,   1.0,   1.5,   2.4,   0.0,  0.01, 
 08/04/04, 07:00,   1.3,  39,   0.9,   1.6,   2.5,   0.0,  0.37, 
 08/04/04, 08:00,   2.8,  42,   0.9,   1.5,   2.5,   0.0,  1.20, 
 08/04/04, 09:00,   3.7,  44,   0.9,   1.4,   2.5,   0.0,  2.00, 
 08/04/04, 10:00,   5.1,  44,   0.9,   1.5,   2.5,   0.0,  2.70, 
 08/04/04, 11:00,   6.0,  38,   0.9,   1.5,   2.5,   0.0,  3.18, 
 08/04/04, 12:00,   6.8,  40,   0.9,   1.5,   2.5,   0.0,  3.45, 
 08/04/04, 13:00,   8.1,  39,   0.9,   1.5,   2.5,   0.0,  3.21, 
 08/04/04, 14:00,   6.6,  39,   0.9,   1.5,   2.4,   0.0,  2.92, 
 08/04/04, 15:00,   6.4,  42,   0.9,   1.5,   2.3,   0.0,  1.48, 
 08/04/04, 16:00,   5.2,  46,   0.9,   1.5,   2.5,   0.0,  1.05, 
 08/04/04, 17:00,   4.4,  51,   0.9,   1.5,   2.5,   0.0,  0.78, 
 08/04/04, 18:00,   3.4,  56,   0.9,   1.5,   2.3,   0.0,  0.32, 
 08/04/04, 19:00,   2.1,  58,   0.9,   1.5,   2.4,   0.5,  0.02, 
 08/04/04, 20:00,   1.3,  60,   0.9,   1.5,   2.4,   0.0,  0.00, 
 08/04/04, 21:00,  -0.7,  64,   0.9,   1.5,   2.4,   0.0,  0.00, 
 08/04/04, 22:00,  -0.1,  35,   0.9,   1.5,   2.4,   0.0,  0.00, 
 08/04/04, 23:00,   0.5,  37,   0.9,   1.5,   2.4,   0.0,  0.00, 
 08/04/05, 00:00,   0.1,  38,   0.9,   1.5,   2.4,   0.0,  0.00, 
 08/04/05, 01:00,  -0.4,  40,   0.9,   1.5,   2.4,   0.0,  0.00, 
 08/04/05, 02:00,  -1.2,  45,   0.9,   1.4,   2.4,   0.0,  0.00, 
 08/04/05, 03:00,  -1.7,  44,   0.9,   1.4,   2.3,   0.0,  0.00, 
 08/04/05, 04:00,  -0.8,  41,   0.9,   1.5,   2.4,   0.0,  0.00, 
 08/04/05, 05:00,  -1.0,  47,   0.9,   1.4,   2.3,   0.0,  0.00, 
 08/04/05, 06:00,  -1.1,  49,   0.9,   1.4,   2.3,   0.0,  0.00, 
 08/04/05, 07:00,   0.3,  49,   0.9,   1.5,   2.4,   0.0,  0.39, 
 08/04/05, 08:00,   2.1,  44,   0.9,   1.5,   2.3,   0.0,  1.22, 
 08/04/05, 09:00,   3.2,  40,   0.8,   1.5,   2.4,   0.0,  2.08, 
 08/04/05, 10:00,   4.7,  40,   0.9,   1.4,   2.4,   0.0,  2.68, 
 08/04/05, 11:00,   6.3,  36,   0.9,   1.4,   2.3,   0.0,  3.23, 
 08/04/05, 12:00,   6.8,  39,   0.9,   1.4,   2.4,   0.0,  3.34, 
 08/04/05, 13:00,   7.5,  34,   0.9,   1.4,   2.3,   0.0,  3.33, 
 08/04/05, 14:00,   7.5,  32,   0.9,   1.4,   2.2,   0.0,  3.14, 
 08/04/05, 15:00,   6.9,  34,   0.9,   1.4,   2.2,   0.0,  2.58, 
 08/04/05, 16:00,   6.5,  35,   0.9,   1.4,   2.3,   0.0,  1.88, 
 08/04/05, 17:00,   5.9,  34,   0.9,   1.4,   2.3,   0.0,  0.82, 
 08/04/05, 18:00,   5.2,  34,   0.9,   1.4,   2.3,   0.0,  0.38, 
 08/04/05, 19:00,   3.8,  43,   0.9,   1.4,   2.3,   0.0,  0.02, 
 08/04/05, 20:00,   2.6,  51,   0.9,   1.4,   2.3,   0.0,  0.00, 
 08/04/05, 21:00,   1.8,  52,   0.9,   1.4,   2.3,   0.0,  0.00, 
 08/04/05, 22:00,   1.4,  48,   0.9,   1.4,   2.3,   0.0,  0.00, 
 08/04/05, 23:00,   0.1,  52,   0.8,   1.3,   2.3,   0.0,  0.00, 
 08/04/06, 00:00,   0.6,  45,   0.8,   1.3,   2.3,   0.0,  0.00, 
 08/04/06, 01:00,   0.3,  47,   0.8,   1.4,   2.3,   0.0,  0.00, 
 08/04/06, 02:00,   1.0,  43,   0.8,   1.3,   2.2,   0.0,  0.00, 
 08/04/06, 03:00,  -0.5,  56,   0.8,   1.3,   2.3,   0.0,  0.00, 
 08/04/06, 04:00,  -0.7,  60,   0.7,   1.4,   2.3,   0.0,  0.00, 
 08/04/06, 05:00,  -0.5,  59,   0.7,   1.3,   2.3,   0.0,  0.00, 
 08/04/06, 06:00,   0.6,  52,   0.7,   1.3,   2.3,   0.0,  0.00, 
 08/04/06, 07:00,   1.5,  51,   0.7,   1.3,   2.2,   0.0,  0.41, 
 08/04/06, 08:00,   3.6,  46,   0.7,   1.4,   2.3,   0.0,  1.31, 
 08/04/06, 09:00,   5.4,  38,   0.7,   1.3,   2.3,   0.0,  2.14, 
 08/04/06, 10:00,   6.2,  39,   0.8,   1.3,   2.3,   0.0,  2.80, 
 08/04/06, 11:00,   7.4,  37,   0.7,   1.3,   2.3,   0.0,  3.28, 
 08/04/06, 12:00,   8.5,  38,   0.7,   1.3,   2.3,   0.0,  3.49, 
 08/04/06, 13:00,   9.1,  34,   0.8,   1.3,   2.3,   0.0,  3.49, 
 08/04/06, 14:00,  10.5,  30,   1.1,   1.3,   2.2,   0.0,  3.25, 
 08/04/06, 15:00,  10.5,  28,   1.7,   1.3,   2.2,   0.0,  2.79, 
 08/04/06, 16:00,   9.8,  20,   2.0,   1.4,   2.2,   0.0,  2.14, 
 08/04/06, 17:00,   8.6,  29,   2.2,   1.6,   2.2,   0.0,  1.36, 
 08/04/06, 18:00,   7.4,  36,   2.3,   1.7,   2.2,   0.0,  0.52, 
 08/04/06, 19:00,   4.3,  52,   2.2,   1.8,   2.2,   0.0,  0.02, 
 08/04/06, 20:00,   3.8,  53,   2.0,   1.9,   2.2,   0.0,  0.00, 
 08/04/06, 21:00,   4.5,  48,   1.9,   2.0,   2.2,   0.0,  0.00, 
 08/04/06, 22:00,   3.1,  54,   1.7,   2.0,   2.2,   0.0,  0.00, 
 08/04/06, 23:00,   1.0,  66,   1.6,   2.0,   2.2,   0.0,  0.00, 
 08/04/07, 00:00,   1.0,  62,   1.5,   2.0,   2.2,   0.0,  0.00, 
 08/04/07, 01:00,   0.6,  67,   1.4,   2.0,   2.2,   0.0,  0.00, 
 08/04/07, 02:00,   1.6,  69,   1.3,   2.0,   2.3,   0.0,  0.00, 
 08/04/07, 03:00,   0.4,  74,   1.2,   2.0,   2.3,   0.0,  0.00, 
 08/04/07, 04:00,   0.7,  65,   1.1,   2.0,   2.3,   0.0,  0.00, 
 08/04/07, 05:00,   0.8,  62,   1.0,   1.9,   2.3,   0.0,  0.00, 
 08/04/07, 06:00,   2.0,  60,   1.0,   1.9,   2.3,   0.0,  0.01, 
 08/04/07, 07:00,   5.7,  26,   0.9,   1.9,   2.3,   0.0,  0.25, 
 08/04/07, 08:00,   6.3,  32,   0.9,   1.8,   2.3,   0.0,  1.02, 
 08/04/07, 09:00,   7.3,  46,   0.9,   1.8,   2.3,   0.0,  1.24, 
 08/04/07, 10:00,   7.5,  45,   0.9,   1.8,   2.3,   0.0,  1.29, 
 08/04/07, 11:00,   8.2,  45,   1.0,   1.6,   2.4,   0.0,  1.56, 
 08/04/07, 12:00,   7.9,  40,   1.5,   1.7,   2.4,   0.0,  1.06, 
 08/04/07, 13:00,   9.4,  43,   1.9,   1.7,   2.4,   0.0,  2.13, 
 08/04/07, 14:00,   8.9,  45,   2.6,   1.8,   2.3,   0.0,  1.31, 
 08/04/07, 15:00,   8.8,  47,   2.9,   1.8,   2.4,   0.0,  0.51, 
 08/04/07, 16:00,   6.3,  75,   3.1,   1.9,   2.3,   0.0,  0.25, 
 08/04/07, 17:00,   5.7,  79,   3.1,   2.0,   2.3,   0.0,  0.15, 
 08/04/07, 18:00,   4.0,  93,   3.1,   2.1,   2.3,   0.0,  0.06, 
 08/04/07, 19:00,   3.6,  99,   3.1,   2.2,   2.3,   1.0,  0.00, 
 08/04/07, 20:00,   3.1,  99,   3.1,   2.4,   2.4,   3.5,  0.00, 
 08/04/07, 21:00,   2.5,  99,   3.0,   2.5,   2.4,   4.0,  0.00, 
 08/04/07, 22:00,   2.7,  99,   2.9,   2.4,   2.4,   2.5,  0.00, 
 08/04/07, 23:00,   5.1,  81,   2.8,   2.5,   2.4,   5.5,  0.00, 
 08/04/08, 00:00,   2.2,  99,   2.8,   2.5,   2.3,   1.5,  0.00, 
 08/04/08, 01:00,   2.0,  99,   2.7,   2.5,   2.4,   0.0,  0.00, 
 08/04/08, 02:00,   2.5,  99,   2.7,   2.6,   2.4,   0.0,  0.00, 
 08/04/08, 03:00,   2.7,  99,   2.6,   2.5,   2.3,   0.5,  0.00, 
 08/04/08, 04:00,   2.3,  99,   2.6,   2.5,   2.3,   0.0,  0.00, 
 08/04/08, 05:00,   3.1,  99,   2.6,   2.5,   2.5,   0.5,  0.00, 
 08/04/08, 06:00,   2.9,  99,   2.4,   2.5,   2.4,   0.0,  0.00, 
 08/04/08, 07:00,   3.0,  99,   2.4,   2.5,   2.5,   0.0,  0.02, 
 08/04/08, 08:00,   3.4,  95,   2.4,   2.5,   2.4,   0.0,  0.15, 
 08/04/08, 09:00,   5.1,  84,   2.5,   2.5,   2.4,   0.0,  0.58, 
 08/04/08, 10:00,   5.7,  83,   2.7,   2.5,   2.4,   0.0,  0.65, 
 08/04/08, 11:00,   6.7,  82,   3.0,   2.5,   2.5,   0.0,  1.38, 
 08/04/08, 12:00,   9.1,  58,   3.5,   2.6,   2.5,   0.0,  2.41, 
 08/04/08, 13:00,  10.7,  51,   4.5,   2.7,   2.6,   0.0,  3.43, 
 08/04/08, 14:00,  11.6,  48,   5.6,   2.8,   2.5,   0.0,  3.38, 
 08/04/08, 15:00,  10.7,  57,   5.9,   2.9,   2.6,   0.0,  1.98, 
 08/04/08, 16:00,  10.3,  48,   6.1,   3.2,   2.5,   0.0,  1.68, 
 08/04/08, 17:00,   9.0,  51,   6.1,   3.4,   2.6,   0.5,  1.49, 
 08/04/08, 18:00,   8.3,  56,   5.9,   3.6,   2.6,   0.0,  0.58, 
 08/04/08, 19:00,   5.6,  90,   5.6,   3.7,   2.7,   0.0,  0.03, 
 08/04/08, 20:00,   4.3,  94,   5.3,   3.9,   2.7,   0.0,  0.00, 
 08/04/08, 21:00,   3.4,  98,   5.0,   3.9,   2.7,   0.0,  0.00, 
 08/04/08, 22:00,   2.7,  98,   4.7,   4.0,   2.7,   0.0,  0.00, 
 08/04/08, 23:00,   2.7,  98,   4.4,   4.0,   2.8,   0.0,  0.00, 
 08/04/09, 00:00,   2.3,  99,   4.1,   4.0,   2.8,   0.0,  0.00, 
 08/04/09, 01:00,   3.3,  99,   3.9,   3.9,   2.8,   0.0,  0.00, 
 08/04/09, 02:00,   2.7,  99,   3.8,   3.9,   2.9,   0.0,  0.00, 
 08/04/09, 03:00,   1.7,  99,   3.6,   3.8,   2.9,   0.0,  0.00, 
 08/04/09, 04:00,   1.2,  99,   3.5,   3.8,   2.9,   0.0,  0.00, 
 08/04/09, 05:00,   1.9,  97,   3.3,   3.7,   2.9,   0.0,  0.00, 
 08/04/09, 06:00,   2.0,  96,   3.1,   3.7,   3.0,   0.0,  0.01, 
 08/04/09, 07:00,   2.6,  97,   2.9,   3.6,   3.0,   0.0,  0.41, 
 08/04/09, 08:00,   6.1,  72,   2.9,   3.5,   3.0,   0.0,  1.24, 
 08/04/09, 09:00,   7.1,  73,   3.0,   3.5,   3.0,   0.0,  1.99, 
 08/04/09, 10:00,  10.6,  54,   3.3,   3.4,   3.0,   0.0,  2.62, 
 08/04/09, 11:00,  10.8,  61,   4.3,   3.4,   3.1,   0.0,  3.17, 
 08/04/09, 12:00,  12.8,  54,   5.8,   3.4,   3.1,   0.0,  3.09, 
 08/04/09, 13:00,  13.3,  50,   7.2,   3.5,   3.0,   0.0,  2.77, 
 08/04/09, 14:00,  13.5,  48,   8.0,   3.7,   3.0,   0.0,  2.50, 
 08/04/09, 15:00,  12.2,  59,   8.3,   4.0,   3.0,   0.0,  1.78, 
 08/04/09, 16:00,  10.2,  70,   8.5,   4.2,   3.1,   0.0,  0.99, 
 08/04/09, 17:00,   9.1,  76,   8.5,   4.5,   3.1,   0.0,  0.59, 
 08/04/09, 18:00,   7.8,  81,   8.3,   4.8,   3.1,   0.0,  0.17, 
 08/04/09, 19:00,   6.6,  87,   8.0,   5.1,   3.2,   0.0,  0.00, 
 08/04/09, 20:00,   6.4,  89,   7.7,   5.2,   3.2,   0.0,  0.00, 
 08/04/09, 21:00,   6.4,  93,   7.4,   5.3,   3.2,   0.0,  0.00, 
 08/04/09, 22:00,   5.9,  97,   7.2,   5.3,   3.2,   0.0,  0.00, 
 08/04/09, 23:00,   5.4,  99,   6.9,   5.3,   3.3,   0.0,  0.00, 
 08/04/10, 00:00,   6.3,  89,   6.7,   5.4,   3.3,   0.0,  0.00, 
 08/04/10, 01:00,   4.9,  99,   6.5,   5.4,   3.4,   0.0,  0.00, 
 08/04/10, 02:00,   5.4,  96,   6.3,   5.4,   3.3,   3.0,  0.00, 
 08/04/10, 03:00,   5.0,  99,   6.2,   5.3,   3.4,   1.5,  0.00, 
 08/04/10, 04:00,   4.8,  99,   5.9,   5.3,   3.5,   0.5,  0.00, 
 08/04/10, 05:00,   4.3,  99,   5.9,   5.3,   3.5,   0.5,  0.00, 
 08/04/10, 06:00,   3.7,  99,   5.6,   5.3,   3.6,   1.0,  0.00, 
 08/04/10, 07:00,   5.4,  99,   5.6,   5.2,   3.6,   0.5,  0.06, 
 08/04/10, 08:00,   5.3,  99,   5.5,   5.2,   3.7,   0.5,  0.13, 
 08/04/10, 09:00,   6.0,  98,   5.4,   5.2,   3.7,   1.5,  0.16, 
 08/04/10, 10:00,   7.0,  93,   5.4,   5.1,   3.7,   2.0,  0.24, 
 08/04/10, 11:00,   7.3,  99,   5.6,   5.1,   3.7,   2.0,  0.39, 
 08/04/10, 12:00,   8.7,  98,   5.6,   5.2,   3.8,   0.5,  0.61, 
 08/04/10, 13:00,   8.4,  99,   6.0,   5.2,   3.7,   0.0,  0.94, 
 08/04/10, 14:00,   9.5,  98,   6.2,   5.2,   3.8,   0.0,  0.83, 
 08/04/10, 15:00,   8.7,  99,   6.6,   5.2,   3.9,   0.0,  1.03, 
 08/04/10, 16:00,   8.0,  99,   6.9,   5.2,   3.9,   0.0,  0.30, 
 08/04/10, 17:00,   7.9,  99,   7.0,   5.3,   3.9,   0.0,  0.08, 
 08/04/10, 18:00,   8.4,  99,   7.0,   5.3,   4.0,   0.0,  0.07, 
 08/04/10, 19:00,   7.3,  99,   6.9,   5.4,   4.0,   0.0,  0.00, 
 08/04/10, 20:00,   7.2,  99,   6.8,   5.4,   4.0,   2.0,  0.00, 
 08/04/10, 21:00,   7.6,  99,   6.7,   5.6,   4.0,   2.0,  0.00, 
 08/04/10, 22:00,   7.1,  99,   6.6,   5.5,   4.0,   4.0,  0.00, 
 08/04/10, 23:00,   6.2,  99,   6.6,   5.7,   4.0,   4.5,  0.00, 
 08/04/11, 00:00,   7.3,  99,   6.5,   5.7,   4.1,   3.0,  0.00, 
 08/04/11, 01:00,   6.4,  99,   6.3,   5.7,   4.1,   2.0,  0.00, 
 08/04/11, 02:00,   5.8,  99,   6.3,   5.7,   4.1,   3.0,  0.00, 
 08/04/11, 03:00,   6.7,  99,   6.2,   5.7,   4.2,   1.0,  0.00, 
 08/04/11, 04:00,   6.5,  99,   6.2,   5.7,   4.2,   1.0,  0.00, 
 08/04/11, 05:00,   4.4,  99,   6.1,   5.7,   4.2,   1.5,  0.00, 
 08/04/11, 06:00,   3.5,  99,   6.0,   5.7,   4.2,   0.0,  0.00, 
 08/04/11, 07:00,   3.3,  99,   6.0,   5.7,   4.2,   0.5,  0.07, 
 08/04/11, 08:00,   3.4,  99,   5.7,   5.6,   4.3,   0.0,  0.27, 
 08/04/11, 09:00,   4.1,  99,   5.7,   5.6,   4.3,   0.0,  0.55, 
 08/04/11, 10:00,   3.8,  99,   5.9,   5.7,   4.3,   0.0,  0.43, 
 08/04/11, 11:00,   6.5,  95,   6.0,   5.6,   4.4,   0.0,  2.03, 
 08/04/11, 12:00,   5.2,  96,   6.7,   5.5,   4.4,   0.0,  1.43, 
 08/04/11, 13:00,   5.7,  94,   7.0,   5.5,   4.5,   0.0,  0.83, 
 08/04/11, 14:00,   5.4,  96,   7.2,   5.6,   4.5,   0.0,  0.98, 
 08/04/11, 15:00,   4.3,  99,   7.3,   5.7,   4.5,   0.0,  0.55, 
 08/04/11, 16:00,   3.7,  99,   7.3,   5.7,   4.5,   0.0,  0.18, 
 08/04/11, 17:00,   3.6,  99,   7.1,   5.8,   4.5,   0.0,  0.16, 
 08/04/11, 18:00,   3.6,  97,   6.9,   5.8,   4.5,   0.0,  0.09, 
 08/04/11, 19:00,   3.0,  99,   6.7,   5.8,   4.5,   0.0,  0.00, 
 08/04/11, 20:00,   2.8,  99,   6.4,   6.0,   4.6,   0.0,  0.00, 
 08/04/11, 21:00,   2.8,  98,   6.2,   5.8,   4.6,   0.0,  0.00, 
 08/04/11, 22:00,   2.6,  98,   6.0,   5.8,   4.6,   0.0,  0.00, 
 08/04/11, 23:00,   2.2,  97,   5.6,   5.8,   4.6,   0.0,  0.00, 
 08/04/12, 00:00,   1.7,  99,   5.6,   5.7,   4.6,   0.0,  0.00, 
 08/04/12, 01:00,   1.5,  99,   5.4,   5.7,   4.5,   0.0,  0.00, 
 08/04/12, 02:00,   1.0,  99,   5.2,   5.6,   4.5,   0.0,  0.00, 
 08/04/12, 03:00,   0.0,  99,   5.0,   5.5,   4.6,   0.0,  0.00, 
 08/04/12, 04:00,  -0.1,  99,   4.8,   5.4,   4.6,   0.0,  0.00, 
 08/04/12, 05:00,   0.0,  98,   4.7,   5.3,   4.6,   0.0,  0.00, 
 08/04/12, 06:00,   2.0,  64,   4.5,   5.3,   4.6,   0.0,  0.02, 
 08/04/12, 07:00,   0.1,  99,   4.2,   5.2,   4.6,   0.5,  0.39, 
 08/04/12, 08:00,   2.0,  95,   4.2,   5.1,   4.6,   0.0,  1.24, 
 08/04/12, 09:00,   4.8,  81,   4.4,   5.0,   4.6,   0.0,  2.10, 
 08/04/12, 10:00,   6.7,  76,   4.6,   5.0,   4.6,   0.0,  2.57, 
 08/04/12, 11:00,   7.8,  74,   5.5,   4.9,   4.6,   0.0,  3.12, 
 08/04/12, 12:00,   8.0,  72,   6.8,   4.9,   4.6,   0.0,  2.95, 
 08/04/12, 13:00,   9.1,  70,   8.0,   5.0,   4.6,   0.0,  3.06, 
 08/04/12, 14:00,   8.6,  70,   8.7,   5.2,   4.6,   0.0,  2.32, 
 08/04/12, 15:00,   7.0,  78,   9.0,   5.4,   4.7,   0.0,  1.94, 
 08/04/12, 16:00,   6.0,  81,   9.0,   5.6,   4.7,   0.0,  1.76, 
 08/04/12, 17:00,   4.3,  92,   9.0,   5.9,   4.7,   0.0,  0.75, 
 08/04/12, 18:00,   3.3,  97,   8.7,   6.0,   4.6,   0.0,  0.14, 
 08/04/12, 19:00,   2.6,  99,   8.4,   6.2,   4.6,   0.0,  0.00, 
 08/04/12, 20:00,   2.9,  97,   8.1,   6.3,   4.6,   0.0,  0.00, 
 08/04/12, 21:00,   2.2,  99,   7.7,   6.4,   4.6,   0.0,  0.00, 
 08/04/12, 22:00,   2.0,  99,   7.4,   6.4,   4.7,   0.0,  0.00, 
 08/04/12, 23:00,   1.7,  99,   7.1,   6.4,   4.6,   0.0,  0.00, 
 08/04/13, 00:00,   0.4,  99,   6.8,   6.4,   4.7,   0.0,  0.00, 
 08/04/13, 01:00,   0.1,  95,   6.6,   6.3,   4.8,   0.0,  0.00, 
 08/04/13, 02:00,  -0.3,  98,   6.2,   6.3,   4.7,   0.0,  0.00, 
 08/04/13, 03:00,   5.2,  69,   5.8,   6.2,   4.7,   0.0,  0.00, 
 08/04/13, 04:00,   4.8,  66,   5.6,   6.1,   4.7,   0.0,  0.00, 
 08/04/13, 05:00,   5.2,  60,   5.4,   6.0,   4.8,   0.0,  0.00, 
 08/04/13, 06:00,   5.2,  61,   5.3,   5.9,   4.8,   0.0,  0.01, 
 08/04/13, 07:00,   4.6,  78,   5.2,   5.8,   4.8,   0.0,  0.17, 
 08/04/13, 08:00,   6.2,  82,   5.1,   5.7,   4.8,   0.0,  0.60, 
 08/04/13, 09:00,   6.7,  84,   5.3,   5.7,   4.8,   0.0,  1.10, 
 08/04/13, 10:00,   6.7,  86,   5.6,   5.6,   4.9,   0.0,  1.03, 
 08/04/13, 11:00,   8.1,  84,   6.0,   5.6,   4.9,   0.0,  1.88, 
 08/04/13, 12:00,   8.6,  81,   6.7,   5.6,   4.9,   0.0,  1.69, 
 08/04/13, 13:00,   7.7,  83,   7.3,   5.6,   5.0,   0.0,  0.93, 
 08/04/13, 14:00,   9.0,  79,   7.5,   5.7,   5.0,   0.0,  0.92, 
 08/04/13, 15:00,   8.2,  89,   7.6,   5.8,   4.9,   0.0,  0.60, 
 08/04/13, 16:00,   6.1,  98,   7.7,   5.9,   4.9,   0.5,  0.24, 
 08/04/13, 17:00,   5.3,  99,   7.7,   6.0,   4.9,   1.5,  0.22, 
 08/04/13, 18:00,   5.4,  98,   7.5,   6.1,   4.9,   0.0,  0.11, 
 08/04/13, 19:00,   5.0,  99,   7.4,   6.1,   5.0,   0.5,  0.00, 
 08/04/13, 20:00,   4.6,  98,   7.2,   6.2,   4.9,   0.5,  0.00, 
 08/04/13, 21:00,   4.6,  99,   7.0,   6.2,   5.0,   1.0,  0.00, 
 08/04/13, 22:00,   4.5,  99,   6.8,   6.2,   4.9,   1.5,  0.00, 
 08/04/13, 23:00,   4.6,  98,   6.6,   6.2,   4.9,   1.0,  0.00, 
 08/04/14, 00:00,   3.8,  99,   6.5,   6.2,   4.9,   1.5,  0.00, 
 08/04/14, 01:00,   3.7,  99,   6.2,   6.2,   5.0,   2.5,  0.00, 
 08/04/14, 02:00,   3.7,  96,   6.0,   6.2,   5.0,   1.5,  0.00, 
 08/04/14, 03:00,   2.8,  99,   5.8,   6.1,   5.0,   2.0,  0.00, 
 08/04/14, 04:00,   2.2,  99,   5.7,   6.1,   5.0,   1.0,  0.00, 
 08/04/14, 05:00,   3.8,  92,   5.5,   6.0,   5.0,   0.5,  0.00, 
 08/04/14, 06:00,   3.1,  99,   5.4,   5.9,   5.1,   0.0,  0.01, 
 08/04/14, 07:00,   3.3,  99,   5.3,   5.9,   5.1,   0.5,  0.18, 
 08/04/14, 08:00,   4.2,  99,   5.3,   5.8,   5.1,   0.0,  0.62, 
 08/04/14, 09:00,   4.1,  97,   5.4,   5.7,   5.1,   0.0,  0.37, 
 08/04/14, 10:00,   5.1,  96,   5.5,   5.7,   5.1,   0.0,  0.78, 
 08/04/14, 11:00,   6.0,  98,   5.8,   5.6,   5.1,   0.0,  1.75, 
 08/04/14, 12:00,   7.9,  86,   6.5,   5.6,   5.1,   0.0,  1.91, 
 08/04/14, 13:00,   6.0,  97,   7.2,   5.7,   5.2,   0.0,  1.35, 
 08/04/14, 14:00,   8.4,  91,   7.6,   5.7,   5.2,   0.0,  1.80, 
 08/04/14, 15:00,   7.6,  78,   7.9,   5.8,   5.2,   0.0,  2.26, 
 08/04/14, 16:00,   8.5,  74,   8.3,   6.1,   5.2,   0.0,  2.09, 
 08/04/14, 17:00,   6.4,  83,   8.3,   6.1,   5.2,   0.0,  1.19, 
 08/04/14, 18:00,   5.4,  90,   8.2,   6.2,   5.2,   0.0,  0.61, 
 08/04/14, 19:00,   4.3,  95,   8.0,   6.3,   5.2,   0.5,  0.04, 
 08/04/14, 20:00,   2.5,  99,   7.8,   6.4,   5.1,   0.0,  0.00, 
 08/04/14, 21:00,   1.8,  99,   7.4,   6.6,   5.2,   0.0,  0.00, 
 08/04/14, 22:00,   1.6,  99,   7.2,   6.6,   5.2,   0.0,  0.00, 
 08/04/14, 23:00,   1.1,  99,   6.8,   6.6,   5.2,   0.0,  0.00, 
 08/04/15, 00:00,  -0.1,  99,   6.5,   6.4,   5.2,   0.0,  0.00, 
 08/04/15, 01:00,   0.1,  99,   6.2,   6.4,   5.2,   0.0,  0.00, 
 08/04/15, 02:00,  -0.1,  99,   6.1,   6.3,   5.2,   0.0,  0.00, 
 08/04/15, 03:00,  -1.0,  99,   5.9,   6.3,   5.2,   0.0,  0.00, 
 08/04/15, 04:00,  -0.5,  87,   5.6,   6.2,   5.2,   0.0,  0.00, 
 08/04/15, 05:00,   0.1,  70,   5.3,   6.1,   5.3,   0.0,  0.00, 
 08/04/15, 06:00,   2.1,  57,   5.0,   6.0,   5.3,   0.0,  0.04, 
 08/04/15, 07:00,   3.7,  55,   4.8,   5.9,   5.3,   0.0,  0.44, 
 08/04/15, 08:00,   7.2,  49,   4.7,   5.8,   5.3,   0.0,  1.18, 
 08/04/15, 09:00,   8.6,  46,   4.9,   5.7,   5.4,   0.0,  2.04, 
 08/04/15, 10:00,  10.5,  49,   5.2,   5.7,   5.3,   0.0,  2.71, 
 08/04/15, 11:00,  12.2,  47,   6.3,   5.5,   5.3,   0.0,  3.18, 
 08/04/15, 12:00,  13.5,  42,   7.8,   5.6,   5.4,   0.0,  3.43, 
 08/04/15, 13:00,  14.1,  35,   9.3,   5.7,   5.4,   0.0,  3.46, 
 08/04/15, 14:00,  14.3,  26,  10.0,   5.9,   5.3,   0.0,  3.22, 
 08/04/15, 15:00,  15.1,  31,  10.2,   6.2,   5.4,   0.0,  2.71, 
 08/04/15, 16:00,  14.8,  32,  10.0,   6.4,   5.3,   0.0,  2.10, 
 08/04/15, 17:00,  13.4,  50,  10.0,   6.8,   5.4,   0.0,  1.32, 
 08/04/15, 18:00,  11.5,  55,   9.7,   7.0,   5.4,   0.0,  0.53, 
 08/04/15, 19:00,   9.2,  63,   9.4,   7.2,   5.4,   0.0,  0.03, 
 08/04/15, 20:00,   8.1,  69,   9.1,   7.3,   5.4,   0.0,  0.00, 
 08/04/15, 21:00,   7.4,  72,   8.7,   7.3,   5.3,   0.0,  0.00, 
 08/04/15, 22:00,   7.5,  75,   8.3,   7.4,   5.3,   0.0,  0.00, 
 08/04/15, 23:00,   7.4,  76,   7.9,   7.4,   5.4,   0.0,  0.00, 
 08/04/16, 00:00,   5.8,  83,   7.6,   7.3,   5.4,   0.0,  0.00, 
 08/04/16, 01:00,   5.5,  84,   7.4,   7.3,   5.5,   0.0,  0.00, 